DW8722 Weather Reports


Display with metric or nautical units.
time (UTC)temp
F
wind
direction
speed
MPH
gust
MPH
rain 1hr
in
rain 24hr
in
rain mn
in
humidity
%
barometer
mb
20260504021749 68 164 4.0 9.0 0.00 0.00 0.00 53 1015.3
20260504020810 69 180 4.0 7.0 0.00 0.00 0.00 52 1015.3
20260504015818 69 161 4.0 8.0 0.00 0.00 0.00 51 1015.3
20260504014759 70 178 4.0 11.0 0.00 0.00 0.00 50 1015.2
20260504013802 70 179 4.0 11.0 0.00 0.00 0.00 49 1015.2
20260504012750 71 178 4.0 8.0 0.00 0.00 0.00 49 1015.1
20260504011725 72 189 4.0 9.0 0.00 0.00 0.00 48 1015.0
20260504010727 73 157 5.0 10.0 0.00 0.00 0.00 47 1015.0
20260504005703 74 190 6.0 10.0 0.00 0.00 0.00 46 1014.9
20260504004717 75 174 5.0 13.0 0.00 0.00 0.00 45 1014.9
20260504003732 76 173 7.0 14.0 0.00 0.00 0.00 44 1014.9
20260504002709 76 184 8.0 14.0 0.00 0.00 0.00 44 1014.9
20260504001713 77 188 8.0 13.0 0.00 0.00 0.00 42 1014.9
20260504000646 78 184 8.0 14.0 0.00 0.00 0.00 41 1015.0
20260503235625 78 180 8.0 16.0 0.00 0.00 0.00 40 1014.9
20260503233548 79 184 8.0 15.0 0.00 0.00 0.00 38 1015.2
20260503232528 79 173 10.0 18.0 0.00 0.00 0.00 37 1015.2
20260503231457 80 175 10.0 19.0 0.00 0.00 0.00 37 1015.3
20260503230517 80 184 10.0 19.0 0.00 0.00 0.00 36 1015.3
20260503223159 81 161 8.0 16.0 0.00 0.00 0.00 37 1015.5
20260503222200 81 171 9.0 17.0 0.00 0.00 0.00 34 1015.7
20260503221202 81 180 10.0 17.0 0.00 0.00 0.00 35 1015.7
20260503213938 81 189 10.0 20.0 0.00 0.00 0.00 37 1015.9
20260503212920 83 188 7.0 14.0 0.00 0.00 0.00 37 1016.1
20260503211918 83 207 7.0 14.0 0.00 0.00 0.00 34 1016.3
20260503205845 83 200 7.0 15.0 0.00 0.00 0.00 34 1016.6
20260503204909 83 168 7.0 15.0 0.00 0.00 0.00 34 1016.8
20260503203920 83 183 7.0 13.0 0.00 0.00 0.00 36 1016.9
20260503201815 82 178 9.0 17.0 0.00 0.00 0.00 34 1017.3
20260503200746 82 223 4.0 14.0 0.00 0.00 0.00 36 1017.6
20260503195730 82 238 6.0 14.0 0.00 0.00 0.00 36 1017.7
20260503194713 81 170 6.0 11.0 0.00 0.00 0.00 37 1017.9
20260503193640 83 238 5.0 13.0 0.00 0.00 0.00 38 1018.0
20260503192705 82 200 8.0 14.0 0.00 0.00 0.00 36 1018.1
20260503191713 82 203 6.0 17.0 0.00 0.00 0.00 38 1018.1
20260503190703 82 250 7.0 21.0 0.00 0.00 0.00 38 1018.3
20260503185644 81 213 8.0 21.0 0.00 0.00 0.00 37 1018.4
20260503184649 81 263 8.0 14.0 0.00 0.00 0.00 40 1018.6
20260503183633 81 213 5.0 14.0 0.00 0.00 0.00 39 1018.7
20260503182607 80 238 7.0 14.0 0.00 0.00 0.00 40 1018.9
20260503181558 80 252 5.0 13.0 0.00 0.00 0.00 42 1019.2
20260503180529 80 265 7.0 14.0 0.00 0.00 0.00 42 1019.4
20260503174406 80 238 7.0 17.0 0.00 0.00 0.00 44 1019.9
20260503173345 79 200 8.0 16.0 0.00 0.00 0.00 43 1019.9
20260503172408 79 236 7.0 17.0 0.00 0.00 0.00 44 1020.1
20260503171420 78 209 7.0 17.0 0.00 0.00 0.00 44 1020.2
20260503170443 78 218 6.0 14.0 0.00 0.00 0.00 45 1020.3
20260503150831 70 205 4.0 9.0 0.00 0.00 0.00 60 1020.8
20260503130536 55 180 1.0 6.0 0.00 0.00 0.00 92 1020.8
20260503081455 51 138 0.0 0.0 0.00 0.00 0.00 88 1019.9
20260503080512 51 138 0.0 0.0 0.00 0.00 0.00 88 1019.9
20260503072323 52 138 0.0 0.0 0.00 0.00 0.00 87 1020.0
20260503071326 52 138 0.0 0.0 0.00 0.00 0.00 87 1020.0
20260503070327 52 138 0.0 0.0 0.00 0.00 0.00 86 1020.1
20260503053857 54 138 0.0 0.0 0.00 0.00 0.00 81 1020.0
20260503052912 55 138 0.0 0.0 0.00 0.00 0.00 80 1019.9
20260503051909 55 138 0.0 0.0 0.00 0.00 0.00 79 1019.8
20260503050923 55 138 0.0 0.0 0.00 0.00 0.00 79 1019.8
20260503045928 56 138 0.0 1.0 0.00 0.00 0.00 78 1019.8
20260503043740 57 140 0.0 0.0 0.00 0.00 0.00 77 1019.7
20260503042800 57 140 0.0 0.0 0.00 0.00 0.00 77 1019.7
20260503041811 58 140 0.0 0.0 0.00 0.00 0.00 75 1019.7
20260503040802 58 140 0.0 0.0 0.00 0.00 0.00 74 1019.7
20260503035751 58 140 0.0 0.0 0.00 0.00 0.00 74 1019.7
20260503034740 59 132 0.0 0.0 0.00 0.00 0.00 74 1019.7
20260503033708 59 132 1.0 3.0 0.00 0.00 0.00 74 1019.7
20260503032726 59 113 0.0 2.0 0.00 0.00 0.00 73 1019.6
20260503031720 60 111 0.0 0.0 0.00 0.00 0.00 73 1019.6
20260503030740 60 111 0.0 0.0 0.00 0.00 0.00 73 1019.6
20260503025724 61 111 0.0 0.0 0.00 0.00 0.00 72 1019.4
20260503024747 61 110 0.0 1.0 0.00 0.00 0.00 71 1019.4
20260503023732 62 110 0.0 0.0 0.00 0.00 0.00 71 1019.2
20260503022703 63 187 0.0 0.0 0.00 0.00 0.00 64 1019.1